Dewpoint
60 61 62 61 61 61 61 61 61 61 61 61 61 61 61 61 60 60 59 59 59 60
61 61 61 61 61 62 61 60 61 61 61 61 61 61 60 60 60 60 58 59 59 59
61 62 62 61 60 61 61 61 60 61 61 61 60 60 61 60 61 59 59 59 59 59
61 62 61 61 61 60 60 60 61 62 61 61 61 61 60 60 61 60 59 60 59 59
61 62 61 61 61 58 59 59 59 61 61 61 61 60 60 60 60 61 60 59 59 58
61 61 61 61 61 60 59 59 59 59 60 61 61 60 60 61 60 61 61 61 61 60
60 61 61 61 61 60 60 58 59 61 61 60 59 59 59 59 60 61 61 62 61 61
60 61 61 61 60 60 59 59 61 60 59 59 59 59 59 61 61 61 61 61 61 61
60 60 61 61 60 60 61 61 61 60 59 58 57 50 52 57 61 62 61 59 60 60
60 60 60 61 60 60 60 60 60 59 59 57 55 47 47 51 62 62 61 59 60 60
58 59 60 61 60 59 59 59 60 59 58 57 53 46 46 50 61 60 62 60 60 61
58 58 59 60 61 61 61 59 60 59 57 55 53 47 46 56 61 60 61 61 60 60
58 59 60 61 60 60 59 59 61 59 57 54 54 48 46 53 60 59 59 58 57 51
59 61 61 61 61 61 59 60 59 59 58 57 55 54 46 51 60 59 59 58 56 53
Lifted_Index
-2 -2 -2 -2 -2 -2 -1 -1 -1 -1 -1 -1 -1 -1 -1 -0 -0 -0 -0 -1 -1 -1
-2 -2 -2 -2 -1 -1 -1 -0 -0 -0 -1 -1 -1 -1 -1 -0 -0 -0 0 -0 -0 -0
-2 -2 -2 -1 -1 -1 -1 -0 -0 -1 -1 -1 -1 -1 -0 -0 -0 0 1 1 0 -0
-2 -1 -1 -1 -1 -0 -0 0 -0 -1 -1 -0 -0 -1 -0 -0 0 0 1 1 1 0
-1 -1 -1 -1 -0 0 0 0 0 -0 -0 -0 -0 -0 -0 -0 0 0 1 1 1 1
-1 -1 -1 -1 -0 0 0 0 0 -0 -0 0 0 0 -0 -0 -0 -0 0 1 1 1
-1 -1 -1 -0 -0 -0 0 0 0 -0 0 0 1 0 -0 -0 -1 -0 -0 0 1 1
-0 -0 -0 -0 -0 -0 -0 -0 -0 0 1 1 1 1 0 -0 -1 -0 -0 0 1 1
-0 -0 -0 -0 -0 -0 -0 -0 -0 0 1 1 1 1 0 -0 -1 -0 -0 0 1 1
-0 -0 -0 -0 0 0 -0 -0 -0 0 1 1 1 1 0 -0 -1 -0 0 1 1 1
-1 -0 -0 -0 0 0 0 -0 -0 0 1 1 1 0 -0 -0 -0 -0 0 1 1 1
-1 -1 -1 -0 0 0 1 0 0 0 1 2 1 0 -0 -0 0 0 1 1 2 2
-1 -1 -1 -1 -0 0 1 1 0 1 1 2 1 1 0 0 0 1 1 1 2 2
-1 -1 -1 -1 -1 -0 1 1 1 1 1 2 2 1 1 0 1 1 1 2 2 2